* Astronomy

Members Login
Username 
 
Password 
    Remember Me  
Post Info TOPIC: Breeze-M tank re-entry


L

Posts: 131433
Date:
RE: Breeze-M tank re-entry
Permalink  
 


Update:
The Breeze-M tank re-entered the Earths atmosphere on the 4th March, 2012 @ 11:44 GMT  ± 1 minute.

Inclination: 48.36°
Revolution Number:  6701
Predicted Location:  39°S, 151°E



__________________


L

Posts: 131433
Date:
Permalink  
 

Possible re-entry sighting:

See Tasmania meteor



__________________


L

Posts: 131433
Date:
Permalink  
 

Update:
The Breeze-M tank is predicted to re-enter the Earths atmosphere on the 4th March, 2012 @ 23:08 GMT  ± 48 hours.

BREEZE-M TANK
1 32300U 07057B   12061.72559268 +.06901216 +10281-4 +37259-3 0 08552
2 32300 048.3612 191.1525 0407065 082.5445 282.1581 15.53807113066584

Period:       92.73 minutes
Inclination: 48.36°
Apogee:     687 km
Perigee:     130 km 
Revolution Number:  6710
Predicted Location:  42.2°N, 150.5°E



__________________


L

Posts: 131433
Date:
Permalink  
 

A Breeze-M tank that was launched on the 17th November, 2007, from the Baikonur Cosmodrome in Kazakhstan, for the SIRIUS 4 satellite mission is predicted to re-enter the Earths atmosphere on the 4th March, 2012 @ -- GMT  ± -- hours.

BREEZE-M TANK
1 32300U 07057B   12061.46841437  .06779164  10221-4  39174-3 0  8530
2 32300 048.3612 192.5264 0420623 081.3005 285.2160 15.50216990 66540

Period:       94.43 minutes
Inclination: 48.36°
Apogee:     848 km
Perigee:     133 km 
Revolution Number:  6710
Predicted Location:  42.2°N, 150.5°E



__________________
Page 1 of 1  sorted by
 
Quick Reply

Please log in to post quick replies.



Create your own FREE Forum
Report Abuse
Powered by ActiveBoard